Showing default

PUNCH-WFI01, 63179

Orbit data source: Space-Track

PUNCH-WFI01, 63179 is an American payload satellite in SSO that was launched on Wed, 12 Mar 2025 UTC via an FALCON 9 launch vehicle from the Air Force Western Test Range (AFWTR). Payload-class satellites include a variety of spacecraft equipped with specific instruments for various scientific and technological missions. These include communications satellites like Starlink; space stations such as the ISS; scientific satellites like the Hubble; Earth observation satellites from companies like Planet Labs, Umbra, and HawkEye 360; GPS; miniature CubeSats for education and research; and military/defense satellites.

Loading next visibility...
Identifier
63179, 2025-047B
Orbit
SSO
Country
Flag of USUS
Related business
Manufacturer
SWRI
Mission
Operational Civil Astronomy
Bus & Motor
PUNCH, Unknown motor
Mass
64 kg wet, 64 kg dry
Launch date (UTC)
2025-03-12 (1 year ago)
Launch vehicle
FALCON 9
Launch site
Air Force Western Test Range (AFWTR)
Object type
Payload
Rocket body
Debris
Shape & HBR
Box + 1 Pan, 1.9 m
Radar Cross Section
0.625 m², Medium (>0.1 m² and < 1m²)

Expand to show TLE details & history
Last TLE update: 6 hours ago

TLE from 6 hours ago
0 PUNCH-WFI01
1 63179U 25047B   26095.23156232  .00000912  00000-0  14536-3 0  9994
2 63179  97.9586 281.8675 0010126  57.1812 303.0371 14.74270791 57318
Epoch: 2026-04-05T05:33Z
TLE epoch observation values (Epoch: 2026-04-05T05:33:26.984Z)
Latitude
0.00004°
Longitude
4.96511°
Altitude
646.605 km
Speed
7.537 km/s
True Right ascension
18h 47m 28s
True Declination
0° 00' 00"
Sunlit
Object was in daylight at epoch
Visualization orbit readout
Latitude
Unknown
Longitude
Unknown
Altitude
Unknown
Speed
Unknown
Apparent Right ascension
Unknown
Apparent Declination
Unknown
Sunlit
N/A
Visualization observer readout
Local Sidereal Time
17:03:34
Azimuth
Unknown
Elevation
Unknown
Doppler factor
Unknown
Orbital elements
Apogee altitude
651.629 km
Perigee altitude
637.407 km
Semi-major axis
7,022.655 km
Eccentricity
0.00101
Inclination
97.9586°
RAAN
281.8675°
Arg. of periapsis
57.1812°
True anomaly
302.93976°
Mean anomaly
303.0371°
Eccentric anomaly
302.98844°
Mean motion
3.688 °/min
Orbital period
97.61 mins
BSTAR
0.00014536
Loading maneuver chart data...
Computing Atmospheric mass density...
Loading historical data...
Loading historical data...
Loading historical data...
Loading historical data...
Loading historical data...
Loading historical data...
Loading historical data...
Other satellites on launch #47 in the year 2025 (2025-03-12 UTC)

Documentation

Showing up to 5 results
|